Location: Bergnerzell
(49.1816°N, 10.2565°E)
Time: 01:49:58
(UTC+00:00)

ATLAS 2AS CENTAUR R/B - Pass Details

Date: 23 May 2024
Orbit: 1017 x 1194 km, 63.7° (Epoch: 19 June)

Event Time Altitude Azimuth Distance (km) Brightness Sun altitude
Rises 01:31:05 0° 317° (NW) 3,921 5.8 -14.0°
Reaches altitude 10° 01:33:51 10° 321° (NW) 2,935 5.2 -13.7°
Maximum altitude 01:40:42 60° 41° (NE) 1,193 3.3 -13.1°
Drops below altitude 10° 01:47:16 10° 121° (ESE) 2,822 5.0 -12.5°
Sets 01:49:53 0° 125° (SE) 3,759 5.6 -12.2°
